Wichita, KS

2:59 PM CST on February 13, 2016 (GMT -0600)
Wichita Eisenhower National Airport

Weather History for KICT - February, 2014

Change the Weather History Date:

Tuesday, February 25, 2014

  Actual Average Record
Temperature  
Mean Temperature 26 °F 40 °F  
Max Temperature 33 °F 51 °F 78 °F (1986)
Min Temperature 18 °F 29 °F 3 °F (1960)
Degree Days  
Heating Degree Days 39 25  
Month to date heating degree days 848 707  
Since 1 July heating degree days 3822 3567  
Cooling Degree Days 0 0  
Month to date cooling degree days 0 0  
Year to date cooling degree days 0 0  
Moisture  
Dew Point 16 °F    
Average Humidity 66    
Maximum Humidity 81    
Minimum Humidity 51    
Precipitation  
Precipitation T in 0.04 in 1.60 in (1912)
Month to date precipitation 0.84 1.03  
Year to date precipitation 0.97 1.86  
Snow  
Snow T in 0.10 in 4.80 in (2013)
Month to date snowfall 13.0 3.0  
Since 1 July snowfall 19.4 12.2  
Snow Depth 0.00 in    
Sea Level Pressure  
Sea Level Pressure 30.36 in    
Wind  
Wind Speed 15 mph (North)    
Max Wind Speed 24 mph    
Max Gust Speed 30 mph    
Visibility 9 miles    
Events Snow    
T = Trace of Precipitation, MM = Missing Value Source: NWS Daily Summary

Daily Weather History Graph

Daily Weather History Graph

Search for Another Location

Airport or City:

Trip Planner

Search our weather history database for the weather conditions in past years. The results will help you decide how hot, cold, wet, or windy it might be!

Date:

Astronomy

Feb. 25, 2014 Rise Set
Actual Time 7:06 AM CST 6:19 PM CST
Civil Twilight 6:40 AM CST 6:45 PM CST
Nautical Twilight 6:09 AM CST 7:16 PM CST
Astronomical Twilight 5:39 AM CST 7:46 PM CST
Moon 3:59 AM CST (2/25) 2:29 PM CST (2/25)
Length of Visible Light 12h 05m
Length of Day
11h 12m
Waning Crescent, 18% of the Moon is Illuminated
Feb 25
Waning Crescent
Mar 1
New
Mar 8
First Quarter
Mar 16
Full
Mar 23
Last Quarter

Hourly Weather History & Observations

Time (CST) Temp. Windchill Dew Point Humidity Pressure Visibility Wind Dir Wind Speed Gust Speed Precip Events Conditions
12:53 AM 30.9 °F 25.2 °F 17.1 °F 57% 30.25 in 10.0 mi ENE 5.8 mph - N/A   Partly Cloudy
1:53 AM 30.0 °F 21.1 °F 18.0 °F 61% 30.28 in 10.0 mi North 10.4 mph - N/A   Partly Cloudy
2:53 AM 28.0 °F 17.0 °F 19.9 °F 72% 30.28 in 10.0 mi North 13.8 mph - N/A   Partly Cloudy
3:53 AM 27.0 °F 16.1 °F 19.0 °F 72% 30.27 in 10.0 mi North 12.7 mph - N/A   Clear
4:53 AM 27.0 °F 14.7 °F 18.0 °F 69% 30.30 in 10.0 mi North 16.1 mph - N/A   Mostly Cloudy
5:53 AM 25.0 °F 13.1 °F 18.0 °F 75% 30.31 in 10.0 mi North 13.8 mph - N/A   Scattered Clouds
6:53 AM 24.1 °F 10.6 °F 18.0 °F 77% 30.31 in 8.0 mi North 17.3 mph 21.9 mph N/A   Scattered Clouds
7:12 AM 23.0 °F 9.6 °F 17.1 °F 78% 30.28 in 10.0 mi North 16.1 mph - N/A   Mostly Cloudy
7:53 AM 23.0 °F 11.1 °F 17.1 °F 78% 30.33 in 10.0 mi North 12.7 mph - N/A   Mostly Cloudy
8:53 AM 24.1 °F 12.0 °F 17.1 °F 75% 30.35 in 10.0 mi North 13.8 mph - N/A   Mostly Cloudy
9:53 AM 25.0 °F 13.6 °F 18.0 °F 75% 30.35 in 10.0 mi North 12.7 mph - N/A   Overcast
10:53 AM 28.0 °F 16.5 °F 19.0 °F 69% 30.36 in 10.0 mi NNE 15.0 mph - N/A   Mostly Cloudy
11:03 AM 28.9 °F 18.6 °F 19.0 °F 67% 30.32 in 10.0 mi North 12.7 mph - N/A   Mostly Cloudy
11:53 AM 28.9 °F 18.2 °F 19.0 °F 67% 30.36 in 10.0 mi North 13.8 mph - N/A   Overcast
12:53 PM 27.0 °F 14.3 °F 19.0 °F 72% 30.35 in 10.0 mi North 17.3 mph - N/A   Overcast
1:53 PM 27.0 °F 15.6 °F 19.0 °F 72% 30.33 in 10.0 mi NNE 13.8 mph - N/A   Overcast
2:44 PM 26.1 °F 14.0 °F 19.0 °F 75% 30.28 in 8.0 mi NNE 15.0 mph - N/A   Overcast
2:53 PM 26.1 °F 13.6 °F 19.0 °F 75% 30.33 in 8.0 mi North 16.1 mph - N/A   Overcast
3:53 PM 26.1 °F 15.0 °F 19.0 °F 75% 30.32 in 6.0 mi NNE 12.7 mph - N/A   Haze
4:53 PM 26.1 °F 12.7 °F 18.0 °F 71% 30.32 in 7.0 mi NE 18.4 mph - N/A   Overcast
5:53 PM 25.0 °F 13.6 °F 16.0 °F 69% 30.35 in 6.0 mi NNE 12.7 mph - N/A   Haze
6:53 PM 24.1 °F 10.1 °F 15.1 °F 69% 30.38 in 7.0 mi North 18.4 mph - N/A   Overcast
7:53 PM 24.1 °F 11.5 °F 12.9 °F 62% 30.41 in 9.0 mi NNE 15.0 mph - N/A   Overcast
8:36 PM 24.1 °F 9.8 °F 10.0 °F 55% 30.38 in 10.0 mi North 19.6 mph 27.6 mph N/A   Overcast
8:53 PM 23.0 °F 8.3 °F 8.1 °F 53% 30.44 in 10.0 mi North 19.6 mph 28.8 mph N/A   Overcast
9:53 PM 21.0 °F 6.6 °F 6.1 °F 53% 30.48 in 10.0 mi NNE 17.3 mph 27.6 mph N/A   Overcast
10:53 PM 19.0 °F 4.0 °F 8.1 °F 62% 30.51 in 10.0 mi North 17.3 mph 28.8 mph N/A   Mostly Cloudy
11:27 PM 19.0 °F 3.6 °F 9.0 °F 65% 30.48 in 9.0 mi North 18.4 mph 27.6 mph 0.00 in Snow Light Snow
11:46 PM 19.0 °F 2.7 °F 9.0 °F 65% 30.46 in 9.0 mi NNE 20.7 mph - 0.00 in Snow Light Snow
11:53 PM 18.0 °F 1.7 °F 8.1 °F 65% 30.51 in 9.0 mi North 19.6 mph 26.5 mph 0.00 in   Overcast